Kilmarnock, Virginia, United States (22482)
Lat: 37.71N, Lon: 76.38W
Wx Zone: VAZ078
Local Info
Past Weather Observations for Yesterday

NOTE: This archive is for the closest National Weather Service station to Kilmarnock. Information may differ from the station used for current weather conditions.

Click here for Long-term Archive

Time Weather Temperature Dewpoint Humidity Pressure Winds Precip Visibility
23:55
Overcast
68°F / 20°C 61°F / 16°C 78% 30.04 in
(1017 mb)
NNE 4.6 mph
(NNE 7 kph)
- 10SM
23:35
Overcast
68°F / 20°C 63°F / 17°C 83% 30.04 in
(1017 mb)
Calm - 10SM
23:15
Overcast
68°F / 20°C 64°F / 18°C 88% 30.04 in
(1017 mb)
Calm - 10SM
22:55
Overcast
68°F / 20°C 64°F / 18°C 88% 30.04 in
(1017 mb)
Calm - 10SM
22:35
Overcast
66°F / 19°C 63°F / 17°C 88% 30.04 in
(1017 mb)
Calm - 10SM
22:15
Overcast
66°F / 19°C 63°F / 17°C 88% 30.04 in
(1017 mb)
Calm - 10SM
21:55
Overcast
66°F / 19°C 63°F / 17°C 88% 30.04 in
(1017 mb)
Calm - 10SM
21:35
Mostly Cloudy
66°F / 19°C 63°F / 17°C 88% 30.04 in
(1017 mb)
Calm - 10SM
21:15
Partly Cloudy
66°F / 19°C 63°F / 17°C 88% 30.01 in
(1016 mb)
Calm - 10SM
20:55
Partly Cloudy
66°F / 19°C 63°F / 17°C 88% 30.01 in
(1016 mb)
Calm - 10SM
20:35
Mostly Cloudy
68°F / 20°C 63°F / 17°C 83% 30.01 in
(1016 mb)
Calm - 10SM
20:15
Mostly Cloudy
68°F / 20°C 63°F / 17°C 83% 30.01 in
(1016 mb)
Calm - 10SM
19:55
Clear
70°F / 21°C 63°F / 17°C 78% 30.01 in
(1016 mb)
Calm - 10SM
19:35
Partly Cloudy
70°F / 21°C 63°F / 17°C 78% 30.01 in
(1016 mb)
NNE 3.5 mph
(NNE 6 kph)
- 10SM
19:15
Mostly Cloudy
72°F / 22°C 64°F / 18°C 78% 30.01 in
(1016 mb)
Calm - 10SM
18:55
Mostly Cloudy
72°F / 22°C 64°F / 18°C 78% 30.01 in
(1016 mb)
Calm - 10SM
18:35
Overcast
72°F / 22°C 63°F / 17°C 73% 30.01 in
(1016 mb)
Calm - 10SM
18:15
Overcast
73°F / 23°C 63°F / 17°C 69% 30.01 in
(1016 mb)
Calm - 10SM
17:55
Mostly Cloudy
73°F / 23°C 64°F / 18°C 74% 30.01 in
(1016 mb)
E 3.5 mph
(E 6 kph)
- 10SM
17:35
Mostly Cloudy
75°F / 24°C 63°F / 17°C 65% 30.01 in
(1016 mb)
Calm - 10SM
17:15
Overcast
75°F / 24°C 63°F / 17°C 65% 30.01 in
(1016 mb)
Calm - 10SM
16:55
Overcast
75°F / 24°C 63°F / 17°C 65% 30.01 in
(1016 mb)
NE 3.5 mph
(NE 6 kph)
- 10SM
16:35
Overcast
75°F / 24°C 63°F / 17°C 65% 29.98 in
(1015 mb)
ENE 6.9 mph
(ENE 11 kph)
- 10SM
15:55
Overcast
77°F / 25°C 61°F / 16°C 57% 29.98 in
(1015 mb)
NNE 3.5 mph
(NNE 6 kph)
- 10SM
15:35
Overcast
77°F / 25°C 63°F / 17°C 61% 29.98 in
(1015 mb)
NE 4.6 mph
(NE 7 kph)
- 10SM
15:15
Overcast
81°F / 27°C 59°F / 15°C 48% 29.98 in
(1015 mb)
Calm - 10SM
14:55
Overcast
81°F / 27°C 57°F / 14°C 45% 29.98 in
(1015 mb)
Calm - 10SM
14:35
Overcast
81°F / 27°C 57°F / 14°C 45% 29.98 in
(1015 mb)
Calm - 10SM
14:15
Overcast
81°F / 27°C 57°F / 14°C 45% 29.98 in
(1015 mb)
Calm - 10SM
13:55
Overcast
81°F / 27°C 57°F / 14°C 45% 29.98 in
(1015 mb)
NW 3.5 mph
(NW 6 kph)
- 10SM
13:35
Overcast
81°F / 27°C 57°F / 14°C 45% 29.98 in
(1015 mb)
SSW 3.5 mph
(SSW 6 kph)
- 10SM
13:15
Overcast
81°F / 27°C 57°F / 14°C 45% 30.01 in
(1016 mb)
Calm - 10SM
12:55
Fair
N/A N/A N/A N/A Calm -
12:35
Fair
N/A N/A N/A N/A Calm -
12:15
Partly Cloudy
82°F / 28°C 57°F / 14°C 42% 30.01 in
(1016 mb)
SSW 6.9 mph
(SSW 11 kph)
- 10SM
11:55
Fair
81°F / 27°C 57°F / 14°C 45% 30.01 in
(1016 mb)
Calm - 10SM
11:38
Fair
N/A N/A N/A 30.01 in
(1016 mb)
Calm -
Time Weather Temperature Dewpoint Humidity Pressure Winds Precip Visibility


Weather for websites

WeatherForYou.com, LLC is not responsible for any damages or problems caused by this service. Current weather conditions are obtained from the closest station including government and personal stations which may have varying degrees of accuracy. Weather forecasts are derived from the NOAA NDFD. Like all things, this site belongs to Jesus Christ... He just trusts me to maintain it. If you have any questions or comments email webmaster@weatherforyou.com

Copyright © 2014, WeatherForYou.com LLC. All rights reserved.